Weather History for KMMK - October, 2011

Change the Weather History Date:

Wednesday, October 26, 2011

  Actual Average (KHVN) Record (KHVN)
Temperature  
Mean Temperature 50 °F -  
Max Temperature 57 °F 56 °F 76 °F (1971)
Min Temperature 42 °F 41 °F 32 °F (2013)
Degree Days  
Heating Degree Days 16    
Moisture  
Dew Point 42 °F    
Average Humidity 77    
Maximum Humidity 89    
Minimum Humidity 62    
Precipitation  
Precipitation 0.00 in - - ()
Sea Level Pressure  
Sea Level Pressure 29.89 in    
Wind  
Wind Speed 1 mph (South)    
Max Wind Speed 5 mph    
Max Gust Speed -    
Visibility 10 miles    
Events Rain    
Averages and records for this station are not official NWS values.
T = Trace of Precipitation, MM = Missing Value Source: NWS Daily Summary

Daily Weather History Graph

Daily Weather History Graph

Search for Another Location

Airport or City:

Trip Planner

Search our weather history database for the weather conditions in past years. The results will help you decide how hot, cold, wet, or windy it might be!

Date:

Astronomy

Oct. 26, 2011 Rise Set
Actual Time 7:15 AM EDT 5:54 PM EDT
Civil Twilight 6:47 AM EDT 6:22 PM EDT
Nautical Twilight 6:14 AM EDT 6:55 PM EDT
Astronomical Twilight 5:42 AM EDT 7:27 PM EDT
Moon 7:00 AM EDT (10/26) 5:33 PM EDT (10/26)
Length of Visible Light 11h 35m
Length of Day
10h 38m
Waning Crescent, 0% of the Moon is Illuminated
Oct 26
Waning Crescent
Oct 26
New
Nov 2
First Quarter
Nov 10
Full
Nov 18
Last Quarter

Hourly Weather History & Observations

Time (EDT) Temp. Dew Point Humidity Pressure Visibility Wind Dir Wind Speed Gust Speed Precip Events Conditions
12:53 AM 42.1 °F 39.0 °F 89% 30.05 in 10.0 mi Calm Calm - N/A   Overcast
1:53 AM 43.0 °F 37.9 °F 82% 30.06 in 10.0 mi Calm Calm - N/A   Overcast
2:53 AM 44.1 °F 39.9 °F 85% 30.03 in 10.0 mi Calm Calm - N/A   Partly Cloudy
3:53 AM 44.1 °F 39.0 °F 82% 30.03 in 10.0 mi Calm Calm - N/A   Mostly Cloudy
4:53 AM 44.1 °F 39.9 °F 85% 30.01 in 10.0 mi Calm Calm - 0.00 in   Overcast
5:53 AM 43.0 °F 39.9 °F 89% 29.99 in 10.0 mi Calm Calm - 0.00 in   Scattered Clouds
7:53 AM 45.0 °F 41.0 °F 86% 29.99 in 10.0 mi Calm Calm - 0.00 in Rain Light Rain
8:53 AM 46.0 °F 42.1 °F 86% 29.97 in 10.0 mi Calm Calm - 0.00 in   Overcast
9:53 AM 46.9 °F 42.1 °F 83% 29.96 in 10.0 mi Calm Calm - 0.00 in   Overcast
11:53 AM 50.0 °F 42.1 °F 74% 29.89 in 10.0 mi North 3.5 mph - N/A   Overcast
12:53 PM 53.1 °F 42.1 °F 66% 29.85 in 10.0 mi Calm Calm - N/A   Overcast
1:53 PM 54.0 °F 42.1 °F 64% 29.82 in 10.0 mi Calm Calm - N/A   Overcast
2:53 PM 55.0 °F 43.0 °F 64% 29.79 in 10.0 mi Calm Calm - N/A   Overcast
3:53 PM 57.0 °F 44.1 °F 62% 29.77 in 10.0 mi North 4.6 mph - N/A   Mostly Cloudy
4:53 PM 54.0 °F 43.0 °F 66% 29.79 in 10.0 mi North 4.6 mph - N/A   Overcast
5:53 PM 52.0 °F 43.0 °F 71% 29.79 in 10.0 mi North 4.6 mph - N/A   Overcast
6:53 PM 52.0 °F 43.0 °F 71% 29.79 in 10.0 mi Calm Calm - N/A   Overcast
8:53 PM 51.1 °F 44.1 °F 77% 29.79 in 10.0 mi Calm Calm - N/A   Overcast
9:53 PM 51.1 °F 44.1 °F 77% 29.78 in 10.0 mi Calm Calm - N/A   Overcast
10:53 PM 51.1 °F 44.1 °F 77% 29.77 in 10.0 mi Calm Calm - N/A   Overcast
11:53 PM 51.1 °F 44.1 °F 77% 29.75 in 10.0 mi Calm Calm - N/A   Overcast